Oxford, NC

7:54 AM EST on December 09, 2016 (GMT -0500)
Henderson-Oxford

Weather History for KHNZ - May, 2013

Change the Weather History Date:

Wednesday, May 1, 2013

  Actual Average (KTDF) Record (KTDF)
Temperature  
Mean Temperature 58 °F -  
Max Temperature 60 °F 75 °F 89 °F (1962)
Min Temperature 55 °F 49 °F 37 °F (1992)
Degree Days  
Heating Degree Days 8    
Growing Degree Days 8 (Base 50)    
Moisture  
Dew Point 55 °F    
Average Humidity 90    
Maximum Humidity 95    
Minimum Humidity 83    
Precipitation  
Precipitation 0.02 in - - ()
Sea Level Pressure  
Sea Level Pressure 30.27 in    
Wind  
Wind Speed 8 mph (NNE)    
Max Wind Speed 16 mph    
Max Gust Speed 24 mph    
Visibility 7 miles    
Events Rain    
Averages and records for this station are not official NWS values.
T = Trace of Precipitation, MM = Missing Value Source: NWS Daily Summary

Daily Weather History Graph

Daily Weather History Graph

Search for Another Location

Airport or City:

Trip Planner

Search our weather history database for the weather conditions in past years. The results will help you decide how hot, cold, wet, or windy it might be!

Date:

Astronomy

May. 01, 2013 Rise Set
Actual Time 6:20 AM EDT 8:02 PM EDT
Civil Twilight 5:53 AM EDT 8:29 PM EDT
Nautical Twilight 5:19 AM EDT 9:03 PM EDT
Astronomical Twilight 4:44 AM EDT 9:38 PM EDT
Moon 1:09 AM EDT (5/1) 11:56 AM EDT (5/1)
Length of Visible Light 14h 36m
Length of Day
13h 41m
Waning Gibbous, 59% of the Moon is Illuminated
May 1
Waning Gibbous
May 2
Last Quarter
May 9
New
May 18
First Quarter
May 25
Full

Hourly Weather History & Observations

Time (EDT) Temp. Dew Point Humidity Pressure Visibility Wind Dir Wind Speed Gust Speed Precip Events Conditions
12:15 AM 57.9 °F 52.9 °F 83% 30.20 in 10.0 mi North 5.8 mph - N/A   Overcast
12:35 AM 57.9 °F 53.4 °F 85% 30.20 in 10.0 mi NNE 5.8 mph - N/A   Overcast
12:55 AM 57.6 °F 53.6 °F 87% 30.20 in 10.0 mi North 9.2 mph 16.1 mph N/A   Overcast
1:15 AM 57.4 °F 54.0 °F 88% 30.20 in 10.0 mi NNE 9.2 mph - N/A   Overcast
1:35 AM 57.2 °F 54.1 °F 89% 30.20 in 10.0 mi North 8.1 mph - N/A   Overcast
1:55 AM 56.8 °F 54.5 °F 92% 30.20 in 10.0 mi NNE 6.9 mph - N/A   Overcast
2:35 AM 56.7 °F 54.5 °F 92% 30.19 in 10.0 mi NNE 6.9 mph - N/A   Overcast
2:55 AM 56.7 °F 54.1 °F 91% 30.19 in 10.0 mi NNE 6.9 mph - N/A   Overcast
3:15 AM 56.8 °F 54.3 °F 91% 30.19 in 10.0 mi NNE 5.8 mph - N/A   Overcast
3:35 AM 56.7 °F 54.5 °F 92% 30.19 in 10.0 mi NNE 6.9 mph - N/A   Overcast
3:55 AM 56.7 °F 54.5 °F 92% 30.20 in 7.0 mi NNE 6.9 mph - N/A   Overcast
4:15 AM 56.7 °F 54.7 °F 93% 30.20 in 7.0 mi NNE 6.9 mph - N/A   Light Drizzle
4:35 AM 56.7 °F 54.7 °F 93% 30.20 in 10.0 mi NNE 5.8 mph - N/A   Overcast
4:55 AM 56.7 °F 54.7 °F 93% 30.20 in 5.0 mi NNE 8.1 mph - N/A   Overcast
5:15 AM 56.7 °F 54.9 °F 94% 30.20 in 7.0 mi NNE 10.4 mph - N/A   Overcast
5:35 AM 56.5 °F 54.7 °F 94% 30.20 in 5.0 mi NNE 6.9 mph 16.1 mph N/A   Overcast
5:55 AM 56.5 °F 54.7 °F 94% 30.21 in 5.0 mi NNE 9.2 mph 16.1 mph N/A   Overcast
6:15 AM 56.3 °F 54.7 °F 94% 30.21 in 3.0 mi NNE 10.4 mph - N/A   Overcast
6:35 AM 56.3 °F 54.7 °F 94% 30.22 in 3.0 mi NNE 10.4 mph 17.3 mph N/A   Overcast
6:55 AM 55.9 °F 54.5 °F 95% 30.23 in 3.0 mi NNE 8.1 mph 17.3 mph N/A   Overcast
7:15 AM 56.3 °F 54.5 °F 94% 30.24 in 5.0 mi NNE 8.1 mph - N/A   Overcast
7:35 AM 56.3 °F 54.5 °F 94% 30.24 in 3.0 mi North 8.1 mph - N/A   Overcast
7:55 AM 55.9 °F 54.1 °F 94% 30.25 in 2.5 mi NNE 8.1 mph - N/A   Overcast
8:15 AM 55.6 °F 53.8 °F 94% 30.26 in 4.0 mi NNE 8.1 mph 16.1 mph N/A   Overcast
8:35 AM 55.8 °F 53.6 °F 92% 30.27 in 5.0 mi NNE 8.1 mph - N/A   Overcast
8:55 AM 55.9 °F 53.8 °F 92% 30.26 in 3.0 mi NNE 9.2 mph - N/A   Overcast
9:15 AM 56.3 °F 54.0 °F 92% 30.27 in 4.0 mi NNE 6.9 mph - N/A   Overcast
9:35 AM 55.9 °F 54.0 °F 93% 30.27 in 2.5 mi NNE 9.2 mph - N/A   Overcast
9:55 AM 56.3 °F 54.0 °F 92% 30.27 in 3.0 mi NNE 11.5 mph 16.1 mph N/A   Overcast
10:15 AM 56.7 °F 54.5 °F 92% 30.28 in 2.5 mi North 6.9 mph - N/A   Overcast
10:35 AM 56.8 °F 54.7 °F 92% 30.29 in 2.0 mi NNE 6.9 mph - N/A Rain Light Rain
10:55 AM 56.8 °F 54.9 °F 93% 30.29 in 2.0 mi NNE 6.9 mph - N/A   Overcast
11:15 AM 57.2 °F 55.0 °F 92% 30.30 in 2.5 mi NNE 6.9 mph - 0.01 in Rain Light Rain
11:35 AM 57.4 °F 55.4 °F 93% 30.29 in 2.0 mi NNE 9.2 mph - 0.01 in Rain Light Rain
11:55 AM 57.7 °F 55.8 °F 93% 30.29 in 2.5 mi NNE 10.4 mph 17.3 mph 0.01 in   Overcast
12:15 PM 58.1 °F 56.1 °F 93% 30.29 in 3.0 mi NNE 8.1 mph - 0.01 in Rain Light Rain
12:35 PM 58.1 °F 55.9 °F 93% 30.29 in 4.0 mi NNE 8.1 mph - 0.01 in   Overcast
12:55 PM 58.3 °F 56.3 °F 93% 30.28 in 5.0 mi NE 9.2 mph - 0.01 in   Overcast
1:15 PM 59.0 °F 56.5 °F 91% 30.28 in 10.0 mi NNE 9.2 mph - N/A   Overcast
1:35 PM 59.0 °F 56.1 °F 90% 30.29 in 10.0 mi NNE 6.9 mph - N/A   Overcast
1:55 PM 59.7 °F 57.0 °F 91% 30.29 in 3.0 mi NE 5.8 mph - N/A Rain Light Rain
2:15 PM 60.1 °F 57.4 °F 91% 30.30 in 2.5 mi NE 8.1 mph - N/A   Overcast
2:35 PM 59.5 °F 57.2 °F 92% 30.29 in 2.5 mi NNE 6.9 mph - N/A   Overcast
2:55 PM 59.9 °F 57.2 °F 91% 30.30 in 3.0 mi NE 5.8 mph - N/A   Overcast
3:15 PM 59.2 °F 56.8 °F 92% 30.29 in 4.0 mi NE 12.7 mph 18.4 mph N/A   Light Drizzle
3:35 PM 58.6 °F 55.9 °F 91% 30.29 in 5.0 mi NE 16.1 mph 24.2 mph N/A   Overcast
3:55 PM 57.9 °F 55.6 °F 92% 30.29 in 4.0 mi NE 11.5 mph - N/A Rain Light Rain
4:15 PM 57.2 °F 54.5 °F 91% 30.29 in 10.0 mi NE 15.0 mph 24.2 mph N/A   Overcast
4:35 PM 57.2 °F 54.0 °F 89% 30.29 in 10.0 mi NE 12.7 mph 17.3 mph N/A   Overcast
4:55 PM 57.6 °F 53.8 °F 87% 30.29 in 10.0 mi NE 8.1 mph - N/A   Overcast
5:15 PM 58.1 °F 54.3 °F 87% 30.30 in 10.0 mi NE 9.2 mph - N/A   Overcast
5:35 PM 58.1 °F 54.0 °F 86% 30.30 in 10.0 mi NE 8.1 mph - N/A   Overcast
5:55 PM 58.1 °F 53.8 °F 86% 30.31 in 10.0 mi NNE 8.1 mph - N/A   Overcast
6:15 PM 58.3 °F 53.8 °F 85% 30.30 in 10.0 mi NE 9.2 mph - N/A   Overcast
6:35 PM 58.1 °F 53.8 °F 86% 30.30 in 10.0 mi NE 5.8 mph - N/A   Overcast
6:55 PM 58.1 °F 54.0 °F 86% 30.30 in 10.0 mi NE 8.1 mph - N/A   Overcast
7:15 PM 58.1 °F 54.0 °F 86% 30.30 in 10.0 mi NE 9.2 mph - N/A   Overcast
7:35 PM 58.1 °F 53.8 °F 86% 30.31 in 10.0 mi NE 9.2 mph - N/A   Overcast
7:55 PM 58.1 °F 53.6 °F 85% 30.31 in 10.0 mi NE 10.4 mph 17.3 mph N/A   Overcast
8:15 PM 57.7 °F 53.8 °F 87% 30.31 in 10.0 mi NE 13.8 mph 19.6 mph N/A   Overcast
8:35 PM 57.9 °F 53.6 °F 86% 30.32 in 10.0 mi ENE 15.0 mph 20.7 mph N/A   Overcast
8:55 PM 57.7 °F 53.6 °F 86% 30.32 in 10.0 mi NE 12.7 mph 17.3 mph N/A   Overcast
9:15 PM 57.7 °F 53.6 °F 86% 30.33 in 10.0 mi NE 12.7 mph 17.3 mph N/A   Overcast
9:35 PM 57.6 °F 53.6 °F 87% 30.33 in 10.0 mi NE 12.7 mph 16.1 mph N/A   Overcast
9:55 PM 57.4 °F 53.6 °F 87% 30.34 in 10.0 mi NE 6.9 mph - N/A   Overcast
10:15 PM 57.6 °F 53.6 °F 87% 30.35 in 10.0 mi NE 10.4 mph - N/A   Overcast
10:35 PM 57.4 °F 53.6 °F 87% 30.35 in 10.0 mi NE 6.9 mph - N/A   Overcast
10:55 PM 57.2 °F 53.6 °F 88% 30.35 in 10.0 mi NE 5.8 mph - N/A   Overcast
11:15 PM 57.2 °F 53.4 °F 87% 30.35 in 10.0 mi NNE 5.8 mph - N/A   Overcast
11:35 PM 57.0 °F 52.9 °F 86% 30.35 in 10.0 mi NE 6.9 mph - N/A   Overcast
11:55 PM 56.8 °F 52.2 °F 84% 30.35 in 10.0 mi NE 4.6 mph - N/A   Overcast